FW5866 Weather Reports


Display with metric or nautical units.
time (UTC)temp
F
wind
direction
speed
MPH
gust
MPH
rain 1hr
in
rain 24hr
in
rain mn
in
humidity
%
barometer
mb
20260902171600 85 0 0.0 4.0 0.00 0.00 0.00 87 1018.1
20260902170051 85 56 0.0 5.0 0.00 0.00 0.00 87 1018.1
20260902164601 86 0 0.0 5.0 0.00 0.01 0.00 88 1018.4
20260902163057 87 113 0.0 5.0 0.00 0.01 0.00 87 1018.5
20260902161554 87 0 0.0 2.0 0.00 0.01 0.00 88 1018.7
20260902160052 87 148 0.0 6.0 0.00 0.01 0.00 88 1018.8
20260902154546 87 0 0.0 4.0 0.00 0.01 0.00 90 1018.8
20260902153054 86 0 0.0 5.0 0.00 0.01 0.00 91 1018.6
20260902151556 86 166 1.0 6.0 0.00 0.01 0.00 90 1018.5
20260902150049 85 0 0.0 6.0 0.00 0.01 0.00 92 1018.5
20260902144607 85 0 0.0 2.0 0.00 0.01 0.00 92 1018.6
20260902143057 84 0 0.0 3.0 0.00 0.01 0.00 93 1018.4
20260902141550 84 146 0.0 4.0 0.00 0.01 0.00 93 1018.3
20260902140053 84 0 0.0 3.0 0.00 0.01 0.00 94 1018.3
20260902134547 83 94 0.0 2.0 0.00 0.01 0.00 95 1018.2
20260902133054 82 118 0.0 3.0 0.00 0.01 0.00 95 1018.2
20260902131554 81 72 0.0 2.0 0.00 0.01 0.00 96 1018.0
20260902130104 81 0 0.0 0.0 0.00 0.01 0.00 96 1017.7
20260902124546 80 0 0.0 0.0 0.00 0.17 0.00 95 1017.7
20260902123054 79 0 0.0 0.0 0.00 0.17 0.00 95 1017.6
20260902121550 78 0 0.0 0.0 0.00 0.17 0.00 94 1017.4
20260902114554 78 0 0.0 0.0 0.00 0.18 0.00 94 1017.2
20260902113055 78 0 0.0 0.0 0.00 0.18 0.00 94 1017.1
20260902111550 78 0 0.0 0.0 0.00 0.18 0.00 94 1017.1
20260902110047 78 0 0.0 0.0 0.00 0.18 0.00 94 1016.8
20260902104554 78 0 0.0 0.0 0.00 0.20 0.00 94 1016.9
20260902103053 78 0 0.0 0.0 0.00 0.20 0.00 94 1016.7
20260902101550 78 0 0.0 1.0 0.00 0.20 0.00 94 1016.9
20260902100110 78 0 0.0 1.0 0.00 0.20 0.00 94 1016.8
20260902094615 78 0 0.0 0.0 0.00 0.23 0.00 93 1017.0
20260902093053 77 0 0.0 0.0 0.00 0.23 0.00 93 1016.8
20260902091558 78 0 0.0 0.0 0.00 0.23 0.00 93 1016.8
20260902090058 78 0 0.0 0.0 0.00 0.23 0.00 94 1016.7
20260902084556 78 0 0.0 1.0 0.00 0.23 0.00 94 1016.6
20260902083056 78 0 0.0 1.0 0.00 0.23 0.00 93 1016.7
20260902081550 78 0 0.0 0.0 0.00 0.23 0.00 93 1016.7
20260902080113 78 0 0.0 1.0 0.00 0.23 0.00 93 1016.7
20260902074557 78 0 0.0 0.0 0.00 0.23 0.00 93 1016.6
20260902073056 79 0 0.0 1.0 0.00 0.23 0.00 93 1016.8
20260902071551 79 0 0.0 1.0 0.00 0.23 0.00 93 1016.9
20260902070106 79 0 0.0 1.0 0.00 0.23 0.00 93 1016.8
20260902064610 79 0 0.0 0.0 0.00 0.23 0.00 93 1016.8
20260902063053 79 0 0.0 1.0 0.00 0.23 0.00 93 1016.8
20260902061604 79 155 0.0 2.0 0.00 0.23 0.00 93 1017.0
20260902060115 79 0 0.0 0.0 0.00 0.23 0.00 93 1017.1
20260902054557 79 0 0.0 2.0 0.00 0.23 0.00 93 1017.1
20260902053059 79 0 0.0 5.0 0.00 0.23 0.00 93 1017.1
20260902051552 79 0 0.0 3.0 0.00 0.23 0.00 93 1017.0
20260902050104 80 0 0.0 3.0 0.00 0.23 0.00 93 1017.0
20260902044559 80 0 0.0 4.0 0.00 0.23 0.23 93 1017.1
20260902043058 80 134 0.0 4.0 0.00 0.23 0.23 93 1017.2
20260902041554 80 0 0.0 4.0 0.00 0.23 0.23 93 1017.2
20260902040050 80 137 0.0 3.0 0.00 0.23 0.23 93 1017.3
20260902034603 80 0 0.0 3.0 0.00 0.23 0.23 92 1017.3
20260902033102 80 0 0.0 3.0 0.00 0.23 0.23 92 1017.2
20260902031558 81 0 0.0 2.0 0.00 0.23 0.23 92 1017.1
20260902030058 81 137 0.0 4.0 0.00 0.23 0.23 92 1017.0
20260902024607 80 0 0.0 1.0 0.00 0.23 0.23 92 1016.7
20260902023052 80 0 0.0 0.0 0.00 0.23 0.23 91 1016.7
20260902021601 80 0 0.0 0.0 0.00 0.23 0.23 91 1016.6
20260902014551 80 0 0.0 0.0 0.00 0.23 0.23 90 1016.3
20260902013049 81 0 0.0 0.0 0.00 0.23 0.23 90 1016.2
20260902011546 81 0 0.0 2.0 0.00 0.23 0.23 89 1016.2
20260902010045 81 144 0.0 2.0 0.00 0.23 0.23 89 1016.3
20260902004558 82 0 0.0 2.0 0.00 0.23 0.23 89 1016.3
20260902003055 82 0 0.0 3.0 0.00 0.23 0.23 89 1016.2
20260902001547 82 0 0.0 2.0 0.00 0.23 0.23 88 1016.1
20260902000058 83 86 0.0 3.0 0.00 0.23 0.23 88 1016.1
20260901234557 83 126 1.0 7.0 0.00 0.23 0.23 88 1016.3
20260901233052 83 122 1.0 7.0 0.00 0.23 0.23 88 1016.2
20260901231559 83 132 0.0 7.0 0.00 0.23 0.23 88 1016.0
20260901230106 83 0 1.0 6.0 0.00 0.23 0.23 88 1015.9
20260901224559 83 107 0.0 6.0 0.00 0.23 0.23 88 1015.6
20260901223053 84 0 0.0 5.0 0.00 0.23 0.23 88 1015.5
20260901221549 84 128 1.0 6.0 0.00 0.23 0.23 88 1015.5
20260901220104 84 147 0.0 3.0 0.00 0.23 0.23 88 1015.4
20260901214554 84 121 1.0 4.0 0.00 0.23 0.23 88 1015.3
20260901213052 84 0 0.0 4.0 0.00 0.23 0.23 87 1015.7
20260901211547 84 125 0.0 5.0 0.00 0.23 0.23 88 1015.8
20260901210057 84 135 0.0 7.0 0.00 0.23 0.23 88 1016.3
20260901204556 84 155 1.0 5.0 0.00 0.23 0.23 89 1016.6
20260901203052 83 0 1.0 6.0 0.00 0.23 0.23 89 1016.7
20260901201600 83 136 0.0 3.0 0.00 0.23 0.23 91 1016.7
20260901200101 83 90 0.0 4.0 0.00 0.23 0.23 91 1016.6
20260901194603 82 0 0.0 3.0 0.00 0.48 0.23 92 1017.0
20260901193102 82 0 0.0 3.0 0.00 0.48 0.23 92 1017.2
20260901191549 82 60 1.0 6.0 0.00 0.48 0.23 92 1017.1
20260901190104 82 30 0.0 3.0 0.00 0.48 0.23 92 1017.2
20260901184553 81 0 2.0 9.0 0.00 0.48 0.23 92 1017.2
20260901183052 81 0 0.0 3.0 0.00 0.48 0.23 92 1017.4
20260901181551 81 127 0.0 7.0 0.00 0.48 0.23 92 1017.4
20260901180055 81 53 2.0 11.0 0.00 0.48 0.23 92 1017.0
20260901174548 81 0 1.0 8.0 0.01 0.48 0.23 92 1017.1
20260901173055 81 43 1.0 9.0 0.01 0.48 0.23 93 1017.4